This is the latest recevied weather packets stored in our database for station/object IK2YOU-3. If no packets are shown the sender has not sent any weather packets the latest 10 day(s).
| Time | Temp. | Humidity | Pressure | Rain* | Wind** | Luminosity | Snow |
|---|---|---|---|---|---|---|---|
| 1777554979 | 20° C | 42% | 1021 hPa | 0 mm | - | 434 W/m² | - |
| 1777554252 | 20.56° C | 41% | 1021.1 hPa | 0 mm | - | 457 W/m² | - |
| 1777553667 | 20° C | 43% | 1021.2 hPa | 0 mm | - | 521 W/m² | - |
| 1777553182 | 20° C | 43% | 1021.2 hPa | 0 mm | - | 514 W/m² | - |
| 1777552451 | 20° C | 46% | 1021.2 hPa | 0 mm | - | 262 W/m² | - |
| 1777551979 | 20.56° C | 48% | 1021.3 hPa | 0 mm | - | 539 W/m² | - |
| 1777551380 | 18.33° C | 48% | 1021.4 hPa | 0 mm | - | 181 W/m² | - |
| 1777550651 | 19.44° C | 46% | 1021.5 hPa | 0 mm | - | 556 W/m² | - |
| 1777550052 | 19.44° C | 47% | 1021.5 hPa | 0 mm | - | 205 W/m² | - |
| 1777549451 | 19.44° C | 47% | 1021.5 hPa | 0 mm | - | 552 W/m² | - |
| 1777548851 | 19.44° C | 47% | 1021.6 hPa | 0 mm | - | 586 W/m² | - |
| 1777548266 | 18.89° C | 47% | 1021.7 hPa | 0 mm | - | 624 W/m² | - |
| 1777547652 | 18.33° C | 48% | 1021.7 hPa | 0 mm | - | 317 W/m² | - |
| 1777547181 | 18.89° C | 47% | 1021.7 hPa | 0 mm | - | 603 W/m² | - |
| 1777546451 | 19.44° C | 46% | 1021.8 hPa | 0 mm | - | 525 W/m² | - |
| 1777545851 | 18.33° C | 47% | 1021.8 hPa | 0 mm | - | 433 W/m² | - |
| 1777545316 | 18.33° C | 48% | 1021.8 hPa | 0 mm | - | 665 W/m² | - |
| 1777544780 | 18.33° C | 51% | 1021.7 hPa | 0 mm | - | 587 W/m² | - |
| 1777544051 | 18.33° C | 46% | 1021.6 hPa | 0 mm | - | 230 W/m² | - |
| 1777543452 | 17.78° C | 48% | 1021.5 hPa | 0 mm | - | 467 W/m² | - |
| 1777542852 | 18.33° C | 48% | 1021.6 hPa | 0 mm | - | 346 W/m² | - |
| 1777542379 | 17.22° C | 51% | 1021.6 hPa | 0 mm | - | 529 W/m² | - |
| 1777541652 | 17.78° C | 52% | 1021.6 hPa | 0 mm | - | 482 W/m² | - |
| 1777541052 | 17.22° C | 53% | 1021.7 hPa | 0 mm | - | 297 W/m² | - |
| 1777540582 | 17.22° C | 54% | 1021.7 hPa | 0 mm | - | 370 W/m² | - |
* Rain latest hour (hover to see other rain measurements)
** Current wind speed in m/s (hover to see current wind gust speed)